Showing default

SES 20, 53960

Orbit data source: Space-Track

SES 20, 53960 is a payload satellite owned by SES (LU) in GEO that was launched on Tue, 04 Oct 2022 UTC via an ATLAS V 531 launch vehicle from the Air Force Eastern Test Range (AFETR). Payload-class satellites include a variety of spacecraft equipped with specific instruments for various scientific and technological missions. These include communications satellites like Starlink; space stations such as the ISS; scientific satellites like the Hubble; Earth observation satellites from companies like Planet Labs, Umbra, and HawkEye 360; GPS; miniature CubeSats for education and research; and military/defense satellites.

Loading next visibility...
Identifier
53960, 2022-123A
Orbit
GEO
Country
Flag of LULU / SES
Related business
Manufacturer
Boeing/ES
Mission
Operational Commercial Communications
Bus & Motor
BSS-702SP, R-4D
Mass
1,499 kg wet, ~1,369 kg dry
Launch date (UTC)
2022-10-04 (4 years ago)
Launch vehicle
ATLAS V 531
Launch site
Air Force Eastern Test Range (AFETR)
Object type
Payload
Rocket body
Debris
Shape & HBR
Box + 2 Pan, 15.0 m
Radar Cross Section
48.465 m², Large (>1 m²)

Expand to show TLE details & history
Last TLE update: 3 days ago

TLE from 3 days ago
0 SES 20
1 53960U 22123A   26170.87250183 -.00000106  00000-0  00000-0 0  9991
2 53960   0.0296  69.4323 0001819  12.2949  37.3554  1.00271156 13560
Epoch: 2026-06-19T20:56Z
TLE epoch observation values (Epoch: 2026-06-19T20:56:24.158Z)
Latitude
0.03555°
Longitude
-103.08795°
Altitude
35,780.132 km
Speed
3.075 km/s
True Right ascension
07h 56m 25s
True Declination
0° 02' 08"
Sunlit
Object was in daylight at epoch
Visualization orbit readout
Latitude
Unknown
Longitude
Unknown
Altitude
Unknown
Speed
Unknown
Apparent Right ascension
Unknown
Apparent Declination
Unknown
Sunlit
N/A
Visualization observer readout
Local Sidereal Time
21:54:58
Azimuth
Unknown
Elevation
Unknown
Doppler factor
Unknown
Orbital elements
Apogee altitude
35,795.512 km
Perigee altitude
35,780.172 km
Semi-major axis
42,165.979 km
Eccentricity
0.00018
Inclination
0.0296°
RAAN
69.4323°
Arg. of periapsis
12.2949°
True anomaly
37.36805°
Mean anomaly
37.3554°
Eccentric anomaly
37.36172°
Mean motion
0.25067 °/min
Orbital period
1,436.16 mins
BSTAR
0
Loading maneuver chart data...
Computing Atmospheric mass density...
Loading historical data...
Loading historical data...
Loading historical data...
Loading historical data...
Loading historical data...
Loading historical data...
Loading historical data...
Other satellites on launch #123 in the year 2022 (2022-10-04 UTC)

Documentation

Showing up to 5 results
|